This is the latest recevied weather packets stored in our database for station/object HP1GDP-12. If no packets are shown the sender has not sent any weather packets the latest 1 day(s).
| Time | Temp. | Humidity | Pressure | Rain* | Wind** | Luminosity | Snow |
|---|---|---|---|---|---|---|---|
| 1778046501 | 32.22° C | 45% | 1004.1 hPa | - | - | - | - |
| 1778045897 | 32.22° C | 45% | 1004.3 hPa | - | - | - | - |
| 1778045293 | 32.22° C | 45% | 1004.2 hPa | - | - | - | - |
| 1778044689 | 32.22° C | 45% | 1004.4 hPa | - | - | - | - |
| 1778044086 | 31.67° C | 45% | 1004.4 hPa | - | - | - | - |
| 1778043481 | 31.67° C | 44% | 1004.6 hPa | - | - | - | - |
| 1778042878 | 31.67° C | 44% | 1004.7 hPa | - | - | - | - |
| 1778042273 | 31.67° C | 43% | 1004.9 hPa | - | - | - | - |
| 1778041669 | 31.67° C | 43% | 1004.9 hPa | - | - | - | - |
| 1778041064 | 31.67° C | 43% | 1005 hPa | - | - | - | - |
| 1778040460 | 31.11° C | 43% | 1005.1 hPa | - | - | - | - |
| 1778039856 | 31.11° C | 43% | 1005.2 hPa | - | - | - | - |
| 1778039252 | 31.11° C | 44% | 1005.3 hPa | - | - | - | - |
| 1778038648 | 30.56° C | 43% | 1005.1 hPa | - | - | - | - |
| 1778036835 | 30° C | 40% | 1004.8 hPa | - | - | - | - |
| 1778035627 | 30° C | 41% | 1004.8 hPa | - | - | - | - |
| 1778035023 | 30° C | 41% | 1004.7 hPa | - | - | - | - |
| 1778033815 | 30° C | 40% | 1004.4 hPa | - | - | - | - |
| 1778033211 | 30° C | 37% | 1004.3 hPa | - | - | - | - |
| 1778032607 | 30° C | 38% | 1004.3 hPa | - | - | - | - |
| 1778032002 | 30° C | 34% | 1004.3 hPa | - | - | - | - |
| 1778031398 | 30° C | 33% | 1004.2 hPa | - | - | - | - |
| 1778030794 | 30° C | 36% | 1004.2 hPa | - | - | - | - |
| 1778029586 | 30.56° C | 33% | 1003.9 hPa | - | - | - | - |
| 1778028982 | 30.56° C | 33% | 1003.7 hPa | - | - | - | - |
* Rain since midnight (hover to see other rain measurements)
** Current wind speed in m/s (hover to see current wind gust speed)